Weather History for CYWG - January, 2013

Change the Weather History Date:

Tuesday, January 15, 2013

  Actual Average Record
Temperature  
Mean Temperature 7 °F -  
Max Temperature 24 °F 7 °F 35 °F (1999)
Min Temperature -10 °F -5 °F -27 °F (2005)
Degree Days  
Heating Degree Days 58    
Moisture  
Dew Point -2 °F    
Average Humidity 77    
Maximum Humidity 100    
Minimum Humidity 58    
Precipitation  
Precipitation 0.08 in - - ()
Sea Level Pressure  
Sea Level Pressure 29.87 in    
Wind  
Wind Speed 12 mph ()    
Max Wind Speed 29 mph    
Max Gust Speed 34 mph    
Visibility 8.7 miles    
Events Snow    
Averages and records for this station are not official NWS values.
T = Trace of Precipitation, MM = Missing Value Source: Averaged Metar Reports

Daily Weather History Graph

Daily Weather History Graph

Search for Another Location

Airport or City:

Trip Planner

Search our weather history database for the weather conditions in past years. The results will help you decide how hot, cold, wet, or windy it might be!

Date:

Astronomy

Jan. 15, 2013 Rise Set
Actual Time 8:20 AM CST 4:56 PM CST
Civil Twilight 7:44 AM CST 5:33 PM CST
Nautical Twilight 7:03 AM CST 6:13 PM CST
Astronomical Twilight 6:25 AM CST 6:52 PM CST
Moon 9:56 AM CST (1/15) 10:21 PM CST (1/15)
Length of Visible Light 9h 49m
Length of Day
8h 35m
Waxing Crescent, 19% of the Moon is Illuminated
Jan 15
Waxing Crescent
Jan 18
First Quarter
Jan 26
Full
Feb 3
Last Quarter
Feb 10
New

Hourly Weather History & Observations

Time (CST) Temp. Windchill Dew Point Humidity Pressure Visibility Wind Dir Wind Speed Gust Speed Precip Events Conditions
12:00 AM -9 °F - -16 °F 58% 30.19 in 9 mi Calm Calm - -  
12:00 AM -9.4 °F -26.8 °F -16.6 °F 71% 30.19 in 15.0 mi SW 9.2 mph - N/A   Partly Cloudy
1:00 AM -7.6 °F -23.4 °F -14.8 °F 71% 30.17 in 15.0 mi SSW 8.1 mph - N/A   Partly Cloudy
2:00 AM -5.8 °F - -11.2 °F 77% 30.15 in 15.0 mi SSW 2.3 mph - N/A   Mostly Cloudy
3:00 AM -9.4 °F -24.3 °F -16.6 °F 71% 30.13 in 15.0 mi South 6.9 mph - N/A   Mostly Cloudy
4:00 AM -9.4 °F -24.3 °F -16.6 °F 71% 30.11 in 15.0 mi South 6.9 mph - N/A   Scattered Clouds
5:00 AM -9.4 °F -24.3 °F -16.6 °F 71% 30.07 in 15.0 mi South 6.9 mph - N/A   Scattered Clouds
6:00 AM -7 °F - -13 °F 61% 30.04 in 7 mi Calm Calm - -  
6:00 AM -7.6 °F -24.6 °F -13.0 °F 77% 30.05 in 15.0 mi South 9.2 mph - N/A   Clear
7:00 AM -9.4 °F -26.8 °F -14.8 °F 77% 30.03 in 15.0 mi South 9.2 mph - N/A   Clear
8:00 AM -5.8 °F -21.2 °F -11.2 °F 77% 30.03 in 15.0 mi South 8.1 mph - N/A   Clear
9:00 AM -2.2 °F -21.5 °F -7.6 °F 78% 30.00 in 10.0 mi SSW 13.8 mph - N/A   Partly Cloudy
10:00 AM -2.2 °F -21.5 °F -7.6 °F 78% 29.97 in 15.0 mi South 13.8 mph - N/A   Partly Cloudy
11:00 AM 1.4 °F -17.6 °F -4.0 °F 78% 29.93 in 15.0 mi South 15.0 mph - N/A   Partly Cloudy
12:00 PM 4 °F - -3 °F 60% 29.90 in 9 mi Calm Calm - -  
12:00 PM 3.2 °F -14.6 °F -2.2 °F 78% 29.90 in 15.0 mi South 13.8 mph - N/A   Scattered Clouds
1:00 PM 6.8 °F -11.8 °F -2.2 °F 67% 29.84 in 15.0 mi South 17.3 mph - N/A Snow Low Drifting Snow
2:00 PM 8.6 °F -9.5 °F 1.4 °F 73% 29.81 in 15.0 mi South 17.3 mph - N/A Snow Low Drifting Snow
3:00 PM 10.4 °F -8.2 °F 3.2 °F 73% 29.76 in 15.0 mi South 19.6 mph 25.3 mph N/A Snow Low Drifting Snow
4:00 PM 12.2 °F -6.3 °F 6.8 °F 79% 29.72 in 15.0 mi South 20.7 mph 27.6 mph N/A Snow Low Drifting Snow
5:00 PM 14.0 °F -4.7 °F 8.6 °F 79% 29.64 in 15.0 mi South 23.0 mph 32.2 mph N/A Snow Low Drifting Snow
6:00 PM 16 °F - 11 °F 72% 29.61 in 9 mi Calm Calm - -   Unknown Precipitation
6:00 PM 15.8 °F -2.7 °F 10.4 °F 79% 29.61 in 15.0 mi South 24.2 mph 31.1 mph N/A Snow Light Snow
6:07 PM 15.8 °F -1.9 °F - N/A% - 3.0 mi South 21.9 mph 29.9 mph N/A Snow Light Snow
6:11 PM 15.8 °F -1.5 °F - N/A% - 1.0 mi South 20.7 mph 31.1 mph N/A Snow Light Snow
6:19 PM 15.8 °F -1.5 °F - N/A% - 0.8 mi South 20.7 mph 31.1 mph N/A Snow Light Snow
6:53 PM 15.8 °F -2.3 °F - N/A% - 1.0 mi South 23.0 mph 29.9 mph N/A Snow Light Snow
7:00 PM 15.8 °F -1.9 °F 14.0 °F 93% 29.56 in 1.0 mi South 21.9 mph 29.9 mph N/A Snow Light Snow
7:25 PM 17.6 °F 0.5 °F - N/A% - 1.2 mi South 21.9 mph 31.1 mph N/A Snow Light Snow
7:36 PM 17.6 °F 0.5 °F - N/A% - 0.8 mi South 21.9 mph 29.9 mph N/A Snow Light Snow
7:51 PM 17.6 °F 0.5 °F - N/A% - 0.6 mi South 21.9 mph 28.8 mph N/A Snow Light Snow
8:00 PM 19.4 °F 3.2 °F 17.6 °F 93% 29.50 in 0.6 mi South 20.7 mph 26.5 mph N/A Snow Light Snow
8:14 PM 19.4 °F 2.8 °F - N/A% - 1.0 mi SSW 21.9 mph 32.2 mph N/A Snow Light Snow
8:23 PM 19.4 °F 2.5 °F - N/A% - 1.0 mi SSW 23.0 mph 32.2 mph N/A Snow Light Snow
8:43 PM 19.4 °F 4.1 °F - N/A% - 2.0 mi SSW 18.4 mph - N/A Snow Light Snow
9:00 PM 21.2 °F 7.8 °F 19.4 °F 93% 29.49 in 3.0 mi SW 15.0 mph 26.5 mph N/A Snow Low Drifting Snow
9:47 PM 24.8 °F 14.0 °F - N/A% - 2.5 mi WSW 11.5 mph - N/A   Light Freezing Drizzle
10:00 PM 24.8 °F 11.9 °F 24.8 °F 100% 29.49 in 2.5 mi West 16.1 mph - N/A   Light Freezing Drizzle
11:00 PM 23.0 °F 5.7 °F 21.2 °F 93% 29.52 in 4.0 mi NNW 28.8 mph 34.5 mph N/A Snow Low Drifting Snow